TimeMST,TemperatureF,Dew PointF,Humidity,Sea Level PressureIn,VisibilityMPH,Wind Direction,Wind SpeedMPH,Gust SpeedMPH,PrecipitationIn,Events,Conditions,WindDirDegrees,DateUTC
12:53 AM,41.0,25.0,53,29.91,10.0,SSW,9.2,-,N/A,,Overcast,210,2011-11-30 07:53:00
1:53 AM,43.0,24.1,47,29.89,10.0,WSW,5.8,-,N/A,,Overcast,240,2011-11-30 08:53:00
2:53 AM,42.1,25.0,51,29.87,10.0,SW,10.4,-,N/A,,Overcast,220,2011-11-30 09:53:00
3:53 AM,42.8,24.8,49,29.83,10.0,South,5.8,-,N/A,,Overcast,170,2011-11-30 10:53:00
4:53 AM,42.8,26.6,53,29.81,10.0,South,4.6,-,N/A,,Overcast,180,2011-11-30 11:53:00
5:53 AM,41.0,26.6,57,29.81,10.0,West,5.8,-,N/A,,Overcast,280,2011-11-30 12:53:00
6:53 AM,42.1,25.0,51,29.84,10.0,SW,10.4,-,N/A,,Overcast,220,2011-11-30 13:53:00
7:53 AM,41.0,30.9,67,29.87,10.0,NNW,6.9,-,0.00,Rain,Light Rain,330,2011-11-30 14:53:00
8:53 AM,43.0,32.0,65,29.87,10.0,Calm,Calm,-,0.00,,Overcast,0,2011-11-30 15:53:00
9:53 AM,43.0,30.9,62,29.91,10.0,West,6.9,-,N/A,,Mostly Cloudy,260,2011-11-30 16:53:00
10:53 AM,44.1,25.0,47,29.93,10.0,NW,17.3,-,N/A,,Mostly Cloudy,320,2011-11-30 17:53:00
11:53 AM,44.1,25.0,47,29.96,10.0,North,15.0,-,N/A,,Overcast,360,2011-11-30 18:53:00
12:53 PM,42.1,26.1,53,30.00,10.0,North,18.4,-,N/A,,Mostly Cloudy,360,2011-11-30 19:53:00
1:53 PM,41.0,27.0,57,30.03,10.0,North,9.2,-,N/A,,Mostly Cloudy,360,2011-11-30 20:53:00
2:53 PM,42.1,19.9,41,30.04,10.0,North,19.6,25.3,N/A,,Mostly Cloudy,350,2011-11-30 21:53:00
3:53 PM,39.9,21.9,49,30.09,10.0,NNW,12.7,-,N/A,,Scattered Clouds,330,2011-11-30 22:53:00
4:53 PM,36.0,19.0,50,30.17,10.0,NNW,15.0,23.0,N/A,,Scattered Clouds,330,2011-11-30 23:53:00
5:53 PM,34.0,21.9,61,30.23,10.0,NW,27.6,38.0,0.00,Snow,Light Snow,320,2011-12-01 00:53:00
6:53 PM,33.8,24.8,70,30.22,9.0,NNW,20.7,26.5,N/A,Snow,Light Snow,340,2011-12-01 01:53:00
7:01 PM,33.8,24.8,70,30.23,9.0,North,21.9,29.9,0.00,Snow,Light Snow,350,2011-12-01 02:01:00
7:53 PM,30.0,26.1,85,30.36,9.0,North,27.6,34.5,0.00,Snow,Light Snow,360,2011-12-01 02:53:00
8:53 PM,28.0,21.9,78,30.44,9.0,North,26.5,42.6,0.00,Snow,Light Snow,10,2011-12-01 03:53:00
9:53 PM,27.0,21.9,81,30.53,9.0,North,20.7,31.1,0.00,Snow,Light Snow,10,2011-12-01 04:53:00
10:20 PM,26.6,21.2,80,30.47,9.0,North,20.7,31.1,0.00,Snow,Light Snow,10,2011-12-01 05:20:00
10:53 PM,27.0,21.0,78,30.59,9.0,North,20.7,25.3,0.00,Snow,Light Snow,10,2011-12-01 05:53:00
11:03 PM,26.6,21.2,80,30.52,9.0,North,18.4,25.3,0.00,Snow,Light Snow,10,2011-12-01 06:03:00
11:46 PM,26.6,19.4,74,30.54,10.0,North,13.8,23.0,0.00,,Overcast,360,2011-12-01 06:46:00
11:53 PM,26.1,19.9,78,30.63,10.0,North,13.8,-,0.00,,Overcast,360,2011-12-01 06:53:00